{"data":{"norad_id":47405,"intl_designator":"2021-005BJ","name":"STARLINK-2130","alt_names":[],"object_type":"PAYLOAD","status":"ACTIVE","operator":null,"country":"US","launch_date":"2021-01-20","launch_site_code":"AFETR","launch_vehicle":null,"mission":null,"orbit_class":"UNKNOWN","rcs_meters":null,"size_class":null,"mass_kg":null,"dimensions":null,"purposes":["comms"],"wikipedia_slug":null,"has_3d_model":false,"image_url":null,"decayed_at":null,"tle_current":{"epoch":"2026-05-25T04:35:50.059104Z","epoch_age_seconds":61716,"freshness":"FRESH","line1":"1 47405U 21005BJ  26145.19155161  .00009856  00000+0  32891-3 0  9998","line2":"2 47405  53.1603  66.6153 0001156  77.4160 282.6971 15.31701983294744","mean_motion":15.31701983,"eccentricity":0.0001156,"inclination_deg":53.1603,"raan_deg":66.6153,"arg_perigee_deg":77.416,"mean_anomaly_deg":282.6971,"bstar":0.00032891,"rev_number":29474,"period_min":94.013066248018,"perigee_km":469.9423545149,"apogee_km":471.52581350952,"semimajor_km":6848.8710840122,"source":"CELESTRAK","updated_at":"2026-05-25T13:38:16.555351Z"}}}